QPF
0.00 0.00 0.00 0.00 0.00 0.00 0.00 0.00 0.00 0.00 0.00 0.00 0.00 0.00 0.00 0.00 0.00 0.00 0.00 0.00 0.00 0.00 0.00 0.00 0.00 0.00 0.00 0.00 0.00 0.00 0.00 0.00
0.00 0.00 0.00 0.00 0.00 0.00 0.00 0.00 0.00 0.00 0.00 0.00 0.00 0.00 0.00 0.00 0.00 0.00 0.00 0.00 0.00 0.00 0.00 0.00 0.00 0.00 0.00 0.00 0.00 0.00 0.00 0.00
0.00 0.00 0.00 0.00 0.00 0.00 0.00 0.00 0.00 0.00 0.00 0.00 0.00 0.00 0.00 0.00 0.00 0.00 0.00 0.00 0.00 0.00 0.00 0.00 0.00 0.00 0.00 0.00 0.00 0.00 0.00 0.00
0.00 0.00 0.00 0.00 0.00 0.00 0.00 0.00 0.00 0.00 0.00 0.00 0.00 0.00 0.00 0.00 0.00 0.00 0.00 0.00 0.00 0.00 0.00 0.00 0.00 0.00 0.00 0.00 0.00 0.00 0.00 0.00
0.00 0.00 0.00 0.00 0.00 0.00 0.00 0.00 0.00 0.00 0.00 0.00 0.00 0.00 0.00 0.00 0.00 0.00 0.00 0.00 0.00 0.00 0.00 0.00 0.00 0.00 0.00 0.00 0.00 0.00 0.00 0.00
0.00 0.00 0.00 0.00 0.00 0.00 0.00 0.00 0.00 0.00 0.00 0.00 0.00 0.00 0.00 0.00 0.00 0.00 0.00 0.00 0.00 0.00 0.00 0.00 0.00 0.00 0.00 0.00 0.00 0.00 0.00 0.00
0.00 0.00 0.00 0.00 0.00 0.00 0.00 0.00 0.00 0.00 0.00 0.00 0.00 0.00 0.00 0.00 0.00 0.00 0.00 0.00 0.00 0.00 0.00 0.00 0.00 0.00 0.00 0.00 0.00 0.00 0.00 0.00
0.00 0.00 0.00 0.00 0.00 0.00 0.00 0.00 0.00 0.00 0.00 0.00 0.00 0.00 0.00 0.00 0.00 0.00 0.00 0.00 0.00 0.00 0.00 0.00 0.00 0.00 0.00 0.00 0.00 0.00 0.00 0.00
0.00 0.00 0.00 0.00 0.00 0.00 0.00 0.00 0.00 0.00 0.00 0.00 0.00 0.00 0.00 0.00 0.00 0.00 0.00 0.00 0.00 0.00 0.00 0.00 0.00 0.00 0.00 0.00 0.00 0.00 0.00 0.00
0.00 0.00 0.00 0.00 0.00 0.00 0.00 0.00 0.00 0.00 0.00 0.00 0.00 0.00 0.00 0.00 0.00 0.00 0.00 0.00 0.00 0.00 0.00 0.00 0.00 0.00 0.00 0.00 0.00 0.00 0.00 0.00
0.00 0.00 0.00 0.00 0.00 0.00 0.00 0.00 0.00 0.00 0.00 0.00 0.00 0.00 0.00 0.00 0.00 0.00 0.00 0.00 0.00 0.00 0.00 0.00 0.00 0.00 0.00 0.00 0.00 0.00 0.00 0.01
0.00 0.00 0.00 0.00 0.00 0.00 0.00 0.00 0.00 0.00 0.00 0.00 0.00 0.00 0.00 0.00 0.00 0.00 0.00 0.00 0.00 0.00 0.00 0.00 0.00 0.00 0.00 0.00 0.00 0.00 0.00 0.00
0.00 0.00 0.00 0.00 0.00 0.00 0.00 0.00 0.00 0.00 0.00 0.00 0.00 0.00 0.00 0.00 0.00 0.00 0.00 0.00 0.00 0.00 0.00 0.00 0.00 0.00 0.00 0.00 0.00 0.00 0.00 0.00
0.00 0.00 0.00 0.00 0.00 0.00 0.00 0.00 0.00 0.00 0.00 0.00 0.00 0.00 0.00 0.00 0.00 0.00 0.00 0.01 0.01 0.01 0.01 0.00 0.01 0.00 0.00 0.00 0.00 0.00 0.00 0.00
0.00 0.00 0.00 0.00 0.00 0.00 0.00 0.00 0.00 0.00 0.00 0.00 0.00 0.00 0.00 0.00 0.00 0.00 0.00 0.01 0.01 0.00 0.00 0.00 0.00 0.00 0.00 0.00 0.00 0.00 0.00 0.00
0.00 0.00 0.00 0.00 0.00 0.00 0.00 0.00 0.00 0.00 0.00 0.00 0.00 0.00 0.00 0.00 0.00 0.00 0.00 0.00 0.00 0.00 0.00 0.00 0.00 0.00 0.00 0.00 0.00 0.00 0.00 0.00
0.00 0.00 0.00 0.00 0.00 0.00 0.00 0.00 0.00 0.00 0.00 0.00 0.00 0.00 0.00 0.00 0.00 0.00 0.00 0.00 0.00 0.00 0.00 0.00 0.00 0.00 0.00 0.00 0.00 0.00 0.00 0.00
0.00 0.00 0.00 0.00 0.00 0.00 0.00 0.00 0.00 0.00 0.00 0.00 0.00 0.00 0.00 0.00 0.00 0.00 0.00 0.00 0.00 0.00 0.00 0.00 0.00 0.00 0.00 0.00 0.00 0.00 0.00 0.00
0.00 0.00 0.00 0.00 0.00 0.00 0.00 0.00 0.00 0.00 0.00 0.00 0.00 0.00 0.00 0.00 0.00 0.00 0.00 0.00 0.00 0.00 0.00 0.00 0.00 0.00 0.00 0.00 0.00 0.00 0.00 0.00
MSLP
1015.50 1015.87 1016.06 1016.23 1016.65 1016.98 1017.29 1017.83 1018.26 1018.81 1018.92 1019.22 1019.05 1019.08 1019.09 1019.15 1018.83 1018.81 1019.10 1019.01 1019.13 1019.01 1018.54 1018.21 1018.06 1017.83 1017.47 1017.19 1017.04 1016.87 1016.76 1016.64
1015.88 1016.59 1016.85 1017.01 1017.35 1017.45 1017.69 1018.33 1019.09 1019.06 1019.06 1019.17 1018.87 1018.80 1018.81 1018.75 1018.83 1019.37 1019.38 1019.16 1019.07 1018.89 1018.52 1018.14 1017.83 1017.48 1017.19 1017.08 1016.71 1016.37 1016.23 1016.04
1016.32 1016.81 1017.39 1017.71 1018.06 1018.43 1018.70 1018.89 1019.22 1019.28 1019.25 1019.42 1019.61 1019.63 1019.22 1019.33 1019.09 1019.12 1018.95 1019.14 1018.91 1018.65 1018.47 1018.13 1017.73 1017.36 1016.97 1016.70 1016.55 1016.00 1015.42 1015.39
1016.72 1017.33 1017.87 1018.33 1018.67 1018.87 1019.02 1019.35 1019.60 1019.88 1019.79 1019.55 1019.39 1019.08 1018.96 1018.79 1019.04 1018.90 1018.98 1019.00 1018.80 1018.57 1018.16 1017.84 1017.51 1017.08 1016.46 1016.03 1015.80 1015.46 1014.80 1014.48
1017.58 1018.05 1018.53 1018.96 1019.36 1019.58 1019.68 1019.85 1019.93 1020.11 1020.25 1019.99 1019.98 1019.53 1019.38 1019.49 1019.26 1019.12 1019.15 1018.88 1018.55 1018.21 1017.91 1017.55 1017.05 1016.64 1016.13 1015.69 1015.36 1015.30 1015.11 1014.21
1018.28 1018.76 1019.09 1019.51 1019.84 1020.12 1020.27 1020.22 1020.24 1020.36 1020.36 1020.43 1020.16 1020.00 1019.89 1019.67 1019.50 1019.20 1018.79 1018.16 1017.96 1017.63 1017.47 1017.45 1016.93 1016.40 1015.84 1015.59 1015.37 1015.25 1014.92 1014.46
1018.73 1019.15 1019.40 1019.67 1020.04 1020.29 1020.32 1020.17 1020.20 1020.46 1020.39 1020.49 1020.56 1020.42 1020.07 1019.69 1019.38 1019.03 1018.47 1018.13 1017.57 1017.23 1017.05 1017.09 1016.81 1016.44 1016.33 1016.21 1016.22 1016.19 1016.05 1016.00
1018.77 1019.09 1019.30 1019.63 1019.97 1020.18 1020.20 1020.13 1020.04 1020.20 1020.29 1020.30 1020.24 1020.12 1020.01 1019.76 1019.45 1018.93 1018.60 1017.82 1017.38 1017.11 1017.24 1017.02 1016.64 1016.73 1016.56 1016.64 1017.21 1017.56 1017.64 1017.81
1019.24 1019.44 1019.56 1019.77 1020.19 1020.35 1020.39 1020.10 1019.81 1019.90 1020.11 1020.06 1020.05 1020.05 1019.92 1019.87 1019.64 1019.43 1018.93 1018.16 1017.72 1017.48 1017.36 1017.26 1017.07 1016.91 1016.85 1016.73 1017.12 1017.59 1018.11 1018.23
1019.37 1019.51 1019.68 1019.89 1020.13 1020.17 1020.26 1019.97 1019.70 1019.75 1020.04 1020.13 1020.26 1020.33 1020.31 1020.12 1019.84 1019.48 1018.85 1018.33 1017.77 1017.69 1017.60 1017.63 1017.35 1017.21 1017.29 1017.53 1017.90 1017.95 1018.00 1017.96
1019.38 1019.53 1019.77 1019.96 1020.01 1020.22 1020.20 1020.07 1019.90 1020.08 1020.28 1020.43 1020.51 1020.50 1020.44 1020.42 1020.10 1019.66 1019.20 1018.59 1018.13 1017.80 1017.68 1017.71 1017.99 1018.12 1018.60 1018.50 1018.13 1017.59 1017.46 1017.31
1019.60 1019.84 1020.02 1020.13 1020.29 1020.28 1020.29 1020.29 1020.27 1020.30 1020.49 1020.53 1020.51 1020.57 1020.48 1020.23 1019.88 1019.70 1019.44 1018.85 1018.47 1018.24 1018.07 1018.28 1018.60 1018.96 1018.88 1018.50 1017.91 1017.31 1016.89 1016.65
1019.61 1019.76 1020.02 1020.21 1020.39 1020.43 1020.39 1020.64 1020.72 1020.77 1020.73 1020.54 1020.28 1020.47 1020.49 1020.26 1020.12 1019.78 1019.70 1019.23 1018.72 1018.59 1018.78 1018.97 1019.05 1018.86 1018.27 1018.12 1017.78 1017.35 1016.83 1016.58
1019.58 1019.88 1020.19 1020.46 1020.53 1020.73 1020.70 1020.85 1020.87 1020.78 1020.63 1020.48 1020.16 1020.21 1020.24 1020.23 1020.10 1019.99 1019.63 1019.35 1019.13 1019.16 1019.08 1019.02 1018.75 1018.47 1017.98 1017.68 1017.43 1016.93 1016.50 1016.25
1020.25 1020.59 1020.71 1020.95 1020.80 1020.74 1020.91 1020.88 1020.74 1020.58 1020.49 1020.18 1020.08 1020.29 1020.36 1020.37 1020.16 1019.93 1019.50 1019.23 1019.05 1018.75 1018.45 1018.23 1018.02 1017.80 1017.54 1017.35 1017.12 1016.83 1016.54 1016.17
1021.20 1021.24 1021.14 1020.80 1020.76 1020.99 1020.92 1020.90 1020.65 1020.51 1020.26 1020.11 1020.35 1020.37 1020.18 1019.94 1019.91 1019.75 1019.43 1019.16 1018.93 1018.67 1018.46 1018.27 1018.10 1017.81 1017.64 1018.03 1017.58 1017.07 1016.45 1016.05
1022.00 1021.61 1021.02 1020.75 1020.79 1020.82 1020.86 1020.51 1020.46 1020.46 1020.00 1020.20 1020.36 1020.24 1020.12 1020.04 1019.97 1019.77 1019.47 1019.19 1018.88 1018.69 1018.36 1018.09 1017.91 1017.69 1018.32 1018.49 1018.24 1017.34 1016.53 1015.75
1021.73 1021.20 1020.64 1020.66 1020.54 1020.71 1020.39 1020.28 1020.35 1020.08 1020.05 1020.09 1020.07 1020.00 1020.12 1020.05 1019.81 1019.57 1019.35 1019.10 1018.86 1018.59 1018.29 1018.14 1018.01 1017.85 1018.20 1018.35 1018.15 1017.36 1016.48 1015.74
1021.40 1020.95 1020.70 1020.61 1020.46 1020.29 1020.19 1019.94 1019.86 1019.98 1019.88 1019.90 1019.94 1019.98 1019.98 1019.83 1019.72 1019.51 1019.27 1018.94 1018.68 1018.38 1018.22 1018.25 1018.06 1017.79 1018.15 1018.25 1017.97 1017.10 1016.11 1015.47
Thickness
5671 5667 5665 5662 5656 5650 5644 5636 5629 5620 5614 5607 5604 5599 5595 5590 5588 5584 5578 5575 5570 5567 5567 5566 5563 5560 5560 5559 5556 5555 5553 5551
5664 5657 5653 5650 5645 5641 5635 5625 5614 5610 5605 5598 5597 5592 5589 5584 5579 5571 5567 5565 5561 5558 5556 5555 5553 5552 5550 5546 5546 5546 5543 5541
5654 5649 5643 5638 5632 5626 5620 5614 5606 5601 5596 5589 5583 5578 5577 5571 5568 5563 5559 5553 5550 5546 5543 5541 5539 5538 5537 5535 5532 5533 5535 5532
5645 5639 5632 5626 5619 5614 5608 5601 5595 5588 5584 5582 5577 5574 5569 5565 5557 5554 5548 5542 5538 5534 5532 5530 5528 5527 5529 5529 5526 5523 5524 5525
5633 5626 5619 5613 5606 5601 5595 5590 5585 5579 5572 5568 5562 5559 5554 5549 5546 5541 5535 5531 5527 5523 5520 5517 5516 5515 5516 5515 5514 5508 5503 5509
5618 5612 5607 5600 5593 5587 5583 5579 5573 5567 5560 5554 5550 5545 5541 5536 5531 5526 5523 5520 5514 5511 5505 5500 5498 5497 5497 5495 5493 5489 5486 5487
5609 5603 5598 5591 5585 5578 5573 5568 5562 5554 5549 5543 5536 5529 5524 5519 5515 5511 5509 5505 5502 5497 5492 5484 5481 5479 5473 5467 5463 5458 5453 5448
5600 5594 5589 5582 5575 5568 5562 5556 5550 5544 5537 5530 5524 5518 5511 5506 5502 5499 5493 5492 5488 5482 5472 5467 5462 5455 5448 5439 5429 5422 5416 5409
5585 5580 5575 5569 5561 5554 5549 5546 5541 5534 5526 5519 5513 5506 5499 5490 5482 5475 5470 5468 5464 5457 5449 5441 5435 5428 5421 5414 5403 5395 5383 5375
5575 5571 5565 5558 5551 5545 5538 5534 5530 5523 5515 5506 5496 5486 5476 5468 5461 5454 5449 5444 5439 5431 5423 5415 5408 5401 5391 5382 5369 5359 5352 5346
5567 5561 5553 5547 5541 5534 5527 5522 5515 5505 5495 5484 5473 5463 5455 5445 5439 5433 5426 5421 5416 5408 5399 5388 5376 5365 5352 5341 5335 5333 5328 5326
5557 5551 5544 5537 5530 5523 5515 5506 5497 5487 5476 5466 5457 5447 5438 5430 5423 5413 5403 5396 5389 5380 5371 5357 5344 5330 5320 5315 5314 5316 5316 5316
5549 5542 5533 5523 5515 5506 5498 5488 5479 5469 5459 5450 5444 5432 5421 5410 5398 5389 5379 5370 5361 5351 5337 5325 5314 5308 5307 5302 5301 5302 5303 5303
5538 5529 5519 5509 5501 5491 5483 5473 5463 5453 5442 5433 5425 5413 5400 5387 5377 5365 5355 5343 5332 5320 5311 5304 5299 5296 5296 5294 5292 5292 5293 5292
5522 5512 5503 5493 5486 5477 5465 5455 5445 5436 5426 5417 5405 5390 5378 5366 5354 5343 5332 5321 5311 5305 5300 5296 5292 5289 5287 5284 5281 5279 5278 5278
5505 5496 5488 5483 5473 5459 5448 5437 5429 5419 5410 5399 5384 5371 5359 5346 5332 5320 5310 5303 5297 5292 5287 5282 5278 5276 5273 5264 5263 5263 5265 5265
5481 5477 5475 5467 5454 5443 5430 5422 5412 5403 5395 5379 5364 5351 5337 5323 5310 5301 5294 5288 5285 5279 5275 5271 5267 5263 5252 5245 5243 5246 5248 5252
5470 5468 5462 5449 5438 5426 5419 5409 5396 5386 5374 5359 5346 5333 5318 5305 5296 5289 5283 5278 5273 5267 5263 5258 5251 5245 5236 5229 5226 5228 5232 5234
5462 5453 5443 5433 5425 5417 5405 5395 5383 5368 5355 5342 5328 5315 5303 5294 5285 5279 5274 5269 5262 5257 5251 5242 5235 5229 5219 5212 5210 5212 5217 5218